Date String (YYYY-MM-DD hh:mm:ss) UTC,Instrument flags,Ambient pressure (hPa),Sample flow (lpm),Bypass flow (lpm),Sample temperature (°C),Ambient temperature (°C),ASC tube jacket temperature (°C),LED temperature (°C),Box temperature (°C),Sample RH (%),Span deviation,Mass concentration (μg/m³),Mass concentration (μg/m³),Mass concentration (μg/m³)
DateTimeUTC,F1_M11,P_M11,Q1_M11,Q2_M11,T1_M11,T2_M11,T3_M11,T4_M11,T5_M11,U1_M11,ZSPAN_M11,X0_M11,X2_M11,X1_M11
2022-04-24 05:00:00,,0820.9,5.01,0.00,22.6,21.6,00.0,31.6,24.4,11.9,0000.0,0002.77,0000.54,0000.38
2022-04-24 05:01:00,,0820.9,5.00,0.00,22.6,21.6,00.0,31.6,24.3,11.8,0000.0,0002.82,0000.56,0000.39
2022-04-24 05:02:00,,0821.1,4.99,0.00,22.6,21.6,00.0,31.6,24.3,11.8,0000.0,0002.83,0000.56,0000.39
2022-04-24 05:03:00,,0821.1,5.00,0.00,22.5,21.6,00.0,31.6,24.2,11.9,0000.0,0002.78,0000.54,0000.39
2022-04-24 05:04:00,,0821.0,5.00,0.00,22.5,21.6,00.0,31.6,24.3,11.8,0000.0,0002.84,0000.55,0000.39
2022-04-24 05:05:00,,0821.0,5.02,0.00,22.5,21.5,00.0,31.6,24.2,11.8,0000.0,0002.98,0000.56,0000.39
2022-04-24 05:06:00,,0821.1,4.99,0.00,22.5,21.5,00.0,31.6,24.2,11.9,0000.0,0002.12,0000.56,0000.39
2022-04-24 05:07:00,,0821.1,4.99,0.00,22.5,21.5,00.0,31.6,24.2,12.0,0000.0,0002.93,0000.55,0000.40
2022-04-24 05:08:00,,0821.1,5.01,0.00,22.5,21.5,00.0,31.6,24.2,12.0,0000.0,0002.79,0000.53,0000.41
2022-04-24 05:09:00,,0821.1,5.01,0.00,22.5,21.5,00.0,31.6,24.2,11.8,0000.0,0002.77,0000.53,0000.41
2022-04-24 05:10:00,,0821.1,4.99,0.00,22.4,21.5,00.0,31.6,24.1,11.8,0000.0,0002.87,0000.57,0000.42
2022-04-24 05:11:00,,0821.1,5.00,0.00,22.4,21.5,00.0,31.5,24.2,12.0,0000.0,0002.87,0000.58,0000.42
2022-04-24 05:12:00,,0821.1,5.00,0.00,22.4,21.5,00.0,31.5,24.2,11.9,0000.0,0002.91,0000.59,0000.42
2022-04-24 05:13:00,,0821.2,5.00,0.00,22.4,21.5,00.0,31.5,24.1,11.9,0000.0,0003.00,0000.63,0000.42
2022-04-24 05:14:00,,0821.1,5.01,0.00,22.4,21.5,00.0,31.5,24.1,11.9,0000.0,0003.03,0000.65,0000.43
2022-04-24 05:15:00,,0821.2,5.01,0.00,22.4,21.5,00.0,31.5,24.2,11.9,0000.0,0003.00,0000.65,0000.43
2022-04-24 05:16:00,,0821.1,5.00,0.00,22.4,21.5,00.0,31.5,24.1,12.0,0000.0,0002.95,0000.68,0000.44
2022-04-24 05:17:00,,0821.1,4.99,0.00,22.4,21.5,00.0,31.5,24.1,12.0,0000.0,0002.97,0000.69,0000.44
2022-04-24 05:18:00,,0821.1,4.99,0.00,22.4,21.4,00.0,31.5,24.1,12.0,0000.0,0001.69,0000.72,0000.45
2022-04-24 05:19:00,,0821.2,5.00,0.00,22.4,21.4,00.0,31.5,24.1,12.0,0000.0,0001.42,0000.73,0000.45
2022-04-24 05:20:00,,0821.1,5.00,0.00,22.4,21.5,00.0,31.5,24.1,12.0,0000.0,0001.44,0000.74,0000.45
2022-04-24 05:21:00,,0821.2,5.01,0.00,22.4,21.5,00.0,31.5,24.1,12.0,0000.0,0001.32,0000.71,0000.46
2022-04-24 05:22:00,,0821.2,4.99,0.00,22.4,21.5,00.0,31.5,24.1,12.0,0000.0,0001.33,0000.72,0000.46
2022-04-24 05:23:00,,0821.2,5.00,0.00,22.3,21.4,00.0,31.5,24.1,12.1,0000.0,0001.29,0000.71,0000.47
2022-04-24 05:24:00,,0821.3,5.00,0.00,22.3,21.4,00.0,31.4,24.0,12.2,0000.0,0001.21,0000.68,0000.47
2022-04-24 05:25:00,,0821.2,4.99,0.00,22.3,21.4,00.0,31.4,24.1,12.2,0000.0,0001.25,0000.69,0000.47
2022-04-24 05:26:00,,0821.3,5.00,0.00,22.3,21.3,00.0,31.4,24.1,12.2,0000.0,0001.33,0000.71,0000.49
2022-04-24 05:27:00,,0821.3,5.00,0.00,22.3,21.3,00.0,31.4,24.1,12.2,0000.0,0001.42,0000.68,0000.49
2022-04-24 05:28:00,,0821.3,5.01,0.00,22.3,21.3,00.0,31.4,24.2,12.2,0000.0,0001.35,0000.66,0000.50
2022-04-24 05:29:00,,0821.3,5.00,0.00,22.4,21.3,00.0,31.4,24.2,12.1,0000.0,0001.28,0000.64,0000.50
2022-04-24 05:30:00,,0821.3,5.00,0.00,22.4,21.3,00.0,31.4,24.2,12.0,0000.0,0001.29,0000.64,0000.51
2022-04-24 05:31:00,,0821.4,4.99,0.00,22.3,21.3,00.0,31.4,24.1,12.1,0000.0,0001.29,0000.64,0000.51
2022-04-24 05:32:00,,0821.3,4.99,0.00,22.3,21.3,00.0,31.4,24.0,12.1,0000.0,0001.22,0000.64,0000.51
2022-04-24 05:33:00,,0821.3,5.00,0.00,22.3,21.3,00.0,31.4,24.0,12.0,0000.0,0001.91,0000.65,0000.52
2022-04-24 05:34:00,,0821.3,5.00,0.00,22.3,21.3,00.0,31.4,24.0,11.9,0000.0,0002.35,0000.66,0000.51
2022-04-24 05:35:00,,0821.3,5.00,0.00,22.3,21.3,00.0,31.4,24.1,12.1,0000.0,0002.39,0000.68,0000.52
2022-04-24 05:36:00,,0821.3,5.01,0.00,22.3,21.3,00.0,31.4,24.1,12.1,0000.0,0002.43,0000.70,0000.52
2022-04-24 05:37:00,,0821.3,4.99,0.00,22.3,21.3,00.0,31.4,24.0,12.0,0000.0,0002.44,0000.70,0000.52
2022-04-24 05:38:00,,0821.4,5.00,0.00,22.3,21.3,00.0,31.3,23.9,12.1,0000.0,0002.27,0000.71,0000.51
2022-04-24 05:39:00,,0821.4,5.00,0.00,22.2,21.3,00.0,31.3,23.9,12.2,0000.0,0002.27,0000.71,0000.50
2022-04-24 05:40:00,,0821.4,4.99,0.00,22.2,21.3,00.0,31.3,23.9,12.3,0000.0,0002.29,0000.71,0000.50
2022-04-24 05:41:00,,0821.4,4.99,0.00,22.2,21.3,00.0,31.3,23.9,12.2,0000.0,0003.08,0000.75,0000.51
2022-04-24 05:42:00,,0821.4,5.01,0.00,22.2,21.2,00.0,31.3,24.0,12.2,0000.0,0003.30,0000.76,0000.52
2022-04-24 05:43:00,,0821.4,5.01,0.00,22.2,21.2,00.0,31.3,24.0,12.0,0000.0,0003.64,0000.74,0000.51
2022-04-24 05:44:00,,0821.4,5.00,0.00,22.2,21.2,00.0,31.3,23.9,12.0,0000.0,0003.09,0000.74,0000.50
2022-04-24 05:45:00,,0821.4,4.99,0.00,22.3,21.1,00.0,31.3,23.9,12.1,0000.0,0002.53,0000.71,0000.50
2022-04-24 05:46:00,,0821.4,5.02,0.00,22.2,21.2,00.0,31.3,23.9,12.1,0000.0,0003.29,0000.69,0000.49
2022-04-24 05:47:00,,0821.4,5.00,0.00,22.2,21.2,00.0,31.3,24.0,12.2,0000.0,0003.24,0000.68,0000.50
2022-04-24 05:48:00,,0821.4,4.99,0.00,22.2,21.2,00.0,31.3,24.0,12.2,0000.0,0003.23,0000.67,0000.50
2022-04-24 05:49:00,,0821.4,5.00,0.00,22.2,21.2,00.0,31.3,24.0,12.3,0000.0,0003.20,0000.66,0000.50
2022-04-24 05:50:00,,0821.4,5.00,0.00,22.2,21.2,00.0,31.3,23.9,12.4,0000.0,0003.23,0000.67,0000.50
2022-04-24 05:51:00,,0821.4,5.00,0.00,22.2,21.1,00.0,31.3,23.9,12.5,0000.0,0003.29,0000.70,0000.50
2022-04-24 05:52:00,,0821.4,5.00,0.00,22.2,21.1,00.0,31.2,23.8,12.5,0000.0,0002.58,0000.66,0000.49
2022-04-24 05:53:00,,0821.4,5.00,0.00,22.2,21.1,00.0,31.2,23.8,12.6,0000.0,0002.20,0000.64,0000.49
2022-04-24 05:54:00,,0821.4,5.00,0.00,22.1,21.1,00.0,31.2,23.9,12.5,0000.0,0001.95,0000.67,0000.50
2022-04-24 05:55:00,,0821.4,5.01,0.00,22.1,21.1,00.0,31.2,23.8,12.5,0000.0,0002.10,0000.71,0000.50
2022-04-24 05:56:00,,0821.5,5.00,0.00,22.1,21.1,00.0,31.2,23.8,12.5,0000.0,0002.12,0000.73,0000.51
2022-04-24 05:57:00,,0821.4,5.01,0.00,22.1,21.0,00.0,31.2,23.7,12.5,0000.0,0001.50,0000.75,0000.51
2022-04-24 05:58:00,,0821.3,5.00,0.00,22.1,21.0,00.0,31.2,23.8,12.6,0000.0,0001.53,0000.75,0000.52
2022-04-24 05:59:00,,0821.4,4.99,0.00,22.1,21.0,00.0,31.2,23.7,12.6,0000.0,0001.52,0000.76,0000.53
